| time (UTC) | temp C | wind direction | speed KPH | gust KPH | rain 1hr cm | rain 24hr cm | rain mn cm | humidity % | barometer mb |
| 20260510120312 | 18 | 260 | 1.6 | 1.6 | 0.00 | 0.03 | 0.03 | 99 | 1015.8 |
| 20260510115808 | 18 | 310 | 1.6 | 1.6 | 0.00 | 0.03 | 0.03 | 99 | 1015.7 |
| 20260510115307 | 18 | 270 | 0.0 | 1.6 | 0.00 | 0.03 | 0.03 | 99 | 1015.5 |
| 20260510114801 | 18 | 260 | 1.6 | 1.6 | 0.00 | 0.03 | 0.03 | 99 | 1015.4 |
| 20260510114259 | 18 | 74 | 3.2 | 3.2 | 0.00 | 0.03 | 0.03 | 99 | 1015.2 |
| 20260510113753 | 18 | 265 | 0.0 | 1.6 | 0.00 | 0.03 | 0.03 | 99 | 1015.1 |
| 20260510113251 | 18 | 267 | 0.0 | 1.6 | 0.00 | 0.03 | 0.03 | 99 | 1015.0 |
| 20260510112747 | 18 | 297 | 0.0 | 1.6 | 0.00 | 0.03 | 0.03 | 99 | 1014.8 |
| 20260510112244 | 18 | 270 | 0.0 | 0.0 | 0.00 | 0.03 | 0.03 | 99 | 1014.7 |
| 20260510111740 | 18 | 344 | 1.6 | 3.2 | 0.00 | 0.03 | 0.03 | 99 | 1014.7 |
| 20260510111237 | 18 | 263 | 0.0 | 0.0 | 0.00 | 0.03 | 0.03 | 99 | 1014.6 |
| 20260510110736 | 18 | 18 | 1.6 | 1.6 | 0.00 | 0.03 | 0.03 | 99 | 1014.3 |
| 20260510110235 | 18 | 278 | 0.0 | 0.0 | 0.00 | 0.03 | 0.03 | 99 | 1014.4 |
| 20260510105734 | 18 | 275 | 0.0 | 0.0 | 0.00 | 0.03 | 0.03 | 99 | 1014.3 |
| 20260510105229 | 18 | 276 | 0.0 | 1.6 | 0.00 | 0.03 | 0.03 | 99 | 1014.4 |
| 20260510104726 | 18 | 241 | 1.6 | 3.2 | 0.00 | 0.03 | 0.03 | 99 | 1014.1 |
| 20260510104224 | 18 | 278 | 0.0 | 0.0 | 0.00 | 0.03 | 0.03 | 99 | 1014.1 |
| 20260510103720 | 18 | 3 | 1.6 | 3.2 | 0.00 | 0.03 | 0.03 | 99 | 1014.1 |
| 20260510103217 | 18 | 266 | 0.0 | 1.6 | 0.00 | 0.03 | 0.03 | 99 | 1014.1 |
| 20260510102716 | 19 | 280 | 0.0 | 0.0 | 0.00 | 0.03 | 0.03 | 99 | 1013.9 |
| 20260510102212 | 19 | 262 | 0.0 | 0.0 | 0.00 | 0.03 | 0.03 | 99 | 1014.0 |
| 20260510101710 | 18 | 264 | 0.0 | 0.0 | 0.00 | 0.03 | 0.03 | 99 | 1013.8 |
| 20260510101209 | 19 | 284 | 0.0 | 1.6 | 0.00 | 0.03 | 0.03 | 99 | 1013.7 |
| 20260510100704 | 19 | 258 | 0.0 | 0.0 | 0.00 | 0.03 | 0.03 | 99 | 1013.9 |
| 20260510100202 | 19 | 322 | 1.6 | 1.6 | 0.00 | 0.03 | 0.03 | 99 | 1013.8 |
| 20260510095657 | 19 | 271 | 0.0 | 0.0 | 0.00 | 0.03 | 0.03 | 99 | 1013.6 |
| 20260510095153 | 19 | 275 | 0.0 | 1.6 | 0.00 | 0.03 | 0.03 | 99 | 1013.6 |
| 20260510094651 | 19 | 277 | 0.0 | 0.0 | 0.00 | 0.03 | 0.03 | 99 | 1013.6 |
| 20260510094147 | 19 | 270 | 0.0 | 0.0 | 0.00 | 0.03 | 0.03 | 99 | 1013.6 |
| 20260510093643 | 19 | 273 | 0.0 | 0.0 | 0.00 | 0.03 | 0.03 | 99 | 1013.6 |
| 20260510093141 | 19 | 258 | 0.0 | 0.0 | 0.00 | 0.03 | 0.03 | 99 | 1013.6 |
| 20260510092637 | 19 | 274 | 0.0 | 0.0 | 0.00 | 0.03 | 0.03 | 99 | 1013.7 |
| 20260510092133 | 19 | 271 | 0.0 | 0.0 | 0.00 | 0.03 | 0.03 | 99 | 1013.7 |
| 20260510091629 | 19 | 274 | 0.0 | 1.6 | 0.00 | 0.03 | 0.03 | 99 | 1013.3 |
| 20260510091125 | 19 | 267 | 0.0 | 0.0 | 0.00 | 0.03 | 0.03 | 99 | 1013.7 |
| 20260510090622 | 19 | 284 | 0.0 | 1.6 | 0.00 | 0.03 | 0.03 | 99 | 1013.6 |
| 20260510090119 | 19 | 267 | 0.0 | 0.0 | 0.00 | 0.03 | 0.03 | 99 | 1013.4 |
| 20260510085613 | 19 | 267 | 0.0 | 0.0 | 0.00 | 0.03 | 0.03 | 99 | 1013.5 |
| 20260510085109 | 19 | 268 | 0.0 | 0.0 | 0.00 | 0.03 | 0.03 | 99 | 1013.6 |
| 20260510084606 | 19 | 264 | 0.0 | 0.0 | 0.00 | 0.03 | 0.03 | 99 | 1013.6 |
| 20260510084102 | 19 | 262 | 0.0 | 0.0 | 0.00 | 0.03 | 0.03 | 99 | 1013.6 |
| 20260510083559 | 19 | 275 | 0.0 | 0.0 | 0.00 | 0.03 | 0.03 | 99 | 1013.5 |
| 20260510083055 | 19 | 255 | 0.0 | 0.0 | 0.00 | 0.03 | 0.03 | 99 | 1013.3 |
| 20260510082552 | 19 | 334 | 0.0 | 1.6 | 0.00 | 0.03 | 0.03 | 99 | 1013.3 |
| 20260510082048 | 19 | 274 | 0.0 | 0.0 | 0.00 | 0.03 | 0.03 | 99 | 1013.4 |
| 20260510081543 | 19 | 271 | 0.0 | 1.6 | 0.00 | 0.03 | 0.03 | 99 | 1013.6 |
| 20260510081039 | 19 | 256 | 0.0 | 0.0 | 0.00 | 0.03 | 0.03 | 99 | 1013.2 |
| 20260510080538 | 19 | 244 | 0.0 | 1.6 | 0.00 | 0.03 | 0.03 | 99 | 1013.4 |
| 20260510080035 | 19 | 284 | 0.0 | 0.0 | 0.00 | 0.03 | 0.03 | 99 | 1013.4 |
| 20260510075532 | 19 | 270 | 0.0 | 0.0 | 0.00 | 0.03 | 0.03 | 99 | 1013.4 |
| 20260510075029 | 19 | 291 | 1.6 | 1.6 | 0.00 | 0.03 | 0.03 | 99 | 1013.4 |
| 20260510074527 | 19 | 273 | 1.6 | 1.6 | 0.00 | 0.03 | 0.03 | 99 | 1013.4 |
| 20260510074022 | 19 | 288 | 1.6 | 1.6 | 0.00 | 0.03 | 0.03 | 99 | 1013.5 |
| 20260510073518 | 19 | 238 | 0.0 | 0.0 | 0.00 | 0.03 | 0.03 | 99 | 1013.4 |
| 20260510073015 | 19 | 305 | 1.6 | 1.6 | 0.00 | 0.03 | 0.03 | 99 | 1013.4 |
| 20260510072512 | 19 | 280 | 0.0 | 0.0 | 0.00 | 0.03 | 0.03 | 99 | 1013.3 |
| 20260510072007 | 19 | 288 | 0.0 | 0.0 | 0.00 | 0.03 | 0.03 | 99 | 1013.2 |
| 20260510071504 | 19 | 271 | 0.0 | 0.0 | 0.00 | 0.03 | 0.03 | 99 | 1013.3 |
| 20260510071002 | 19 | 282 | 1.6 | 1.6 | 0.00 | 0.03 | 0.03 | 99 | 1013.1 |
| 20260510070459 | 19 | 254 | 0.0 | 0.0 | 0.00 | 0.03 | 0.03 | 99 | 1013.2 |
| 20260510065954 | 19 | 295 | 0.0 | 1.6 | 0.00 | 0.03 | 0.03 | 99 | 1013.0 |
| 20260510065452 | 19 | 310 | 1.6 | 1.6 | 0.00 | 0.03 | 0.03 | 99 | 1013.3 |
| 20260510064948 | 19 | 350 | 0.0 | 1.6 | 0.00 | 0.03 | 0.03 | 99 | 1013.3 |
| 20260510064445 | 19 | 272 | 0.0 | 1.6 | 0.00 | 0.03 | 0.03 | 99 | 1013.1 |
| 20260510063942 | 19 | 273 | 0.0 | 1.6 | 0.00 | 0.03 | 0.03 | 99 | 1013.1 |
| 20260510063438 | 19 | 283 | 1.6 | 1.6 | 0.00 | 0.03 | 0.03 | 99 | 1013.2 |
| 20260510062936 | 19 | 273 | 0.0 | 0.0 | 0.00 | 0.03 | 0.03 | 99 | 1013.0 |
| 20260510062436 | 20 | 254 | 0.0 | 1.6 | 0.00 | 0.03 | 0.03 | 99 | 1013.3 |
| 20260510061932 | 20 | 278 | 0.0 | 0.0 | 0.18 | 0.03 | 0.03 | 99 | 1013.1 |
| 20260510061429 | 20 | 178 | 0.0 | 1.6 | 0.18 | 0.03 | 0.03 | 99 | 1013.5 |
| 20260510060925 | 20 | 254 | 0.0 | 1.6 | 0.00 | 0.00 | 0.00 | 99 | 1013.4 |
| 20260510060422 | 19 | 252 | 0.0 | 1.6 | 0.00 | 0.00 | 0.00 | 99 | 1013.3 |
| 20260510055918 | 19 | 253 | 0.0 | 0.0 | 0.00 | 0.00 | 0.00 | 99 | 1013.4 |
| 20260510055414 | 19 | 253 | 0.0 | 0.0 | 0.00 | 0.00 | 0.00 | 99 | 1013.5 |
| 20260510054912 | 20 | 250 | 0.0 | 0.0 | 0.00 | 0.00 | 0.00 | 99 | 1013.3 |
| 20260510054408 | 19 | 250 | 0.0 | 0.0 | 0.00 | 0.00 | 0.00 | 99 | 1013.3 |
| 20260510053902 | 20 | 279 | 0.0 | 1.6 | 0.00 | 0.00 | 0.00 | 99 | 1013.6 |
| 20260510053359 | 19 | 250 | 0.0 | 0.0 | 0.00 | 0.00 | 0.00 | 99 | 1013.3 |
| 20260510052855 | 20 | 250 | 1.6 | 1.6 | 0.00 | 0.00 | 0.00 | 99 | 1013.3 |
| 20260510052351 | 20 | 242 | 0.0 | 0.0 | 0.00 | 0.00 | 0.00 | 99 | 1013.4 |
| 20260510051847 | 20 | 257 | 0.0 | 0.0 | 0.00 | 0.00 | 0.00 | 99 | 1013.5 |
| 20260510051344 | 20 | 230 | 0.0 | 0.0 | 0.00 | 0.00 | 0.00 | 99 | 1013.5 |
| 20260510050841 | 20 | 277 | 1.6 | 1.6 | 0.00 | 0.00 | 0.00 | 99 | 1013.5 |
| 20260510050337 | 20 | 261 | 0.0 | 0.0 | 0.00 | 0.00 | 0.00 | 99 | 1013.7 |
| 20260510045835 | 20 | 261 | 0.0 | 1.6 | 0.00 | 5.66 | 5.66 | 99 | 1013.5 |
| 20260510045331 | 20 | 248 | 1.6 | 1.6 | 0.00 | 5.66 | 5.66 | 99 | 1013.4 |
| 20260510044829 | 19 | 246 | 1.6 | 1.6 | 0.00 | 5.66 | 5.66 | 99 | 1013.6 |
| 20260510044325 | 19 | 228 | 0.0 | 1.6 | 0.00 | 5.66 | 5.66 | 99 | 1013.4 |
| 20260510043821 | 19 | 229 | 1.6 | 1.6 | 0.00 | 5.66 | 5.66 | 99 | 1013.4 |
| 20260510043317 | 19 | 215 | 0.0 | 0.0 | 0.00 | 5.66 | 5.66 | 99 | 1013.1 |
| 20260510042816 | 19 | 222 | 0.0 | 0.0 | 0.00 | 5.66 | 5.66 | 99 | 1013.3 |
| 20260510042311 | 20 | 220 | 0.0 | 0.0 | 0.00 | 5.66 | 5.66 | 99 | 1013.1 |
| 20260510041808 | 20 | 223 | 0.0 | 1.6 | 0.00 | 5.66 | 5.66 | 99 | 1012.8 |
| 20260510041305 | 20 | 209 | 1.6 | 1.6 | 0.00 | 5.66 | 5.66 | 99 | 1012.8 |
| 20260510040803 | 20 | 221 | 0.0 | 1.6 | 0.00 | 5.66 | 5.66 | 99 | 1012.7 |
| 20260510040259 | 20 | 295 | 0.0 | 3.2 | 0.00 | 5.66 | 5.66 | 99 | 1012.5 |
| 20260510035754 | 20 | 239 | 1.6 | 1.6 | 0.00 | 5.66 | 5.66 | 99 | 1012.8 |
| 20260510035250 | 20 | 184 | 3.2 | 3.2 | 0.00 | 5.66 | 5.66 | 99 | 1012.6 |
| 20260510034746 | 20 | 307 | 1.6 | 3.2 | 0.00 | 5.66 | 5.66 | 99 | 1012.7 |
| 20260510034245 | 20 | 223 | 3.2 | 3.2 | 0.00 | 5.66 | 5.66 | 99 | 1012.7 |
| 20260510033740 | 20 | 239 | 1.6 | 3.2 | 0.00 | 5.66 | 5.66 | 99 | 1012.8 |
| 20260510033238 | 20 | 308 | 1.6 | 3.2 | 0.00 | 5.66 | 5.66 | 99 | 1012.7 |
| 20260510032734 | 20 | 272 | 1.6 | 1.6 | 0.00 | 5.66 | 5.66 | 99 | 1012.5 |
| 20260510032230 | 20 | 262 | 4.8 | 8.0 | 0.00 | 5.66 | 5.66 | 99 | 1013.0 |
| 20260510031725 | 20 | 255 | 1.6 | 1.6 | 0.00 | 5.66 | 5.66 | 99 | 1012.9 |
| 20260510031222 | 20 | 237 | 3.2 | 3.2 | 0.00 | 5.66 | 5.66 | 99 | 1013.0 |
| 20260510030721 | 20 | 216 | 1.6 | 1.6 | 0.00 | 5.66 | 5.66 | 99 | 1013.0 |
| 20260510030219 | 20 | 221 | 1.6 | 1.6 | 0.00 | 5.66 | 5.66 | 99 | 1013.2 |
| 20260510025716 | 20 | 221 | 1.6 | 1.6 | 0.00 | 5.66 | 5.66 | 99 | 1013.5 |
| 20260510025213 | 20 | 219 | 1.6 | 1.6 | 0.00 | 5.66 | 5.66 | 99 | 1013.7 |
| 20260510024710 | 20 | 183 | 3.2 | 3.2 | 0.00 | 5.66 | 5.66 | 99 | 1013.7 |
| 20260510024207 | 20 | 226 | 1.6 | 1.6 | 0.00 | 5.66 | 5.66 | 99 | 1013.5 |
| 20260510023702 | 19 | 220 | 1.6 | 1.6 | 0.00 | 5.66 | 5.66 | 99 | 1013.7 |
| 20260510023159 | 19 | 219 | 1.6 | 1.6 | 0.00 | 5.66 | 5.66 | 99 | 1013.3 |
| 20260510022655 | 19 | 214 | 0.0 | 1.6 | 0.00 | 5.66 | 5.66 | 99 | 1013.3 |
| 20260510022150 | 19 | 217 | 0.0 | 1.6 | 0.00 | 5.66 | 5.66 | 99 | 1013.4 |
| 20260510021646 | 19 | 219 | 0.0 | 0.0 | 0.00 | 5.66 | 5.66 | 99 | 1013.2 |
| 20260510021143 | 19 | 216 | 0.0 | 0.0 | 0.00 | 5.66 | 5.66 | 99 | 1013.3 |
| 20260510020638 | 19 | 216 | 0.0 | 0.0 | 0.00 | 5.66 | 5.66 | 99 | 1013.4 |
| 20260510020133 | 19 | 216 | 0.0 | 0.0 | 0.00 | 5.66 | 5.66 | 99 | 1013.3 |
| 20260510015629 | 19 | 214 | 0.0 | 0.0 | 0.00 | 5.66 | 5.66 | 99 | 1013.4 |
| 20260510015126 | 19 | 192 | 0.0 | 1.6 | 0.00 | 5.66 | 5.66 | 99 | 1013.7 |
| 20260510014621 | 19 | 217 | 0.0 | 0.0 | 0.00 | 5.66 | 5.66 | 99 | 1013.8 |
| 20260510014119 | 19 | 213 | 0.0 | 0.0 | 0.00 | 5.66 | 5.66 | 99 | 1013.8 |
| 20260510013619 | 19 | 194 | 0.0 | 0.0 | 0.00 | 5.66 | 5.66 | 99 | 1013.9 |
| 20260510013115 | 19 | 219 | 0.0 | 0.0 | 0.00 | 5.66 | 5.66 | 99 | 1014.1 |
| 20260510012614 | 19 | 217 | 0.0 | 0.0 | 0.00 | 5.66 | 5.66 | 99 | 1014.1 |
| 20260510012111 | 19 | 222 | 0.0 | 1.6 | 0.00 | 5.66 | 5.66 | 99 | 1013.9 |
| 20260510011610 | 19 | 216 | 0.0 | 0.0 | 0.00 | 5.66 | 5.66 | 99 | 1013.9 |
| 20260510011106 | 19 | 210 | 0.0 | 0.0 | 0.00 | 5.66 | 5.66 | 99 | 1014.1 |
| 20260510010603 | 19 | 234 | 1.6 | 1.6 | 0.00 | 5.66 | 5.66 | 99 | 1013.7 |
| 20260510010100 | 19 | 217 | 0.0 | 0.0 | 0.00 | 5.66 | 5.66 | 99 | 1013.4 |
| 20260510005555 | 19 | 225 | 0.0 | 0.0 | 0.00 | 5.66 | 5.66 | 99 | 1013.0 |
| 20260510005054 | 19 | 251 | 0.0 | 0.0 | 0.00 | 5.66 | 5.66 | 99 | 1013.1 |
| 20260510004551 | 19 | 246 | 0.0 | 1.6 | 0.00 | 5.66 | 5.66 | 99 | 1013.3 |
| 20260510004049 | 19 | 292 | 1.6 | 1.6 | 0.00 | 5.66 | 5.66 | 99 | 1013.2 |
| 20260510003546 | 19 | 304 | 1.6 | 1.6 | 0.13 | 5.66 | 5.66 | 99 | 1012.9 |
| 20260510003041 | 19 | 283 | 0.0 | 0.0 | 0.13 | 5.66 | 5.66 | 99 | 1012.8 |
| 20260510002536 | 19 | 247 | 0.0 | 0.0 | 0.00 | 5.64 | 5.64 | 99 | 1012.6 |
| 20260510002034 | 19 | 247 | 0.0 | 0.0 | 0.18 | 5.64 | 5.64 | 99 | 1012.5 |
| 20260510001531 | 19 | 271 | 0.0 | 0.0 | 0.18 | 5.64 | 5.64 | 99 | 1012.5 |
| 20260510001029 | 19 | 267 | 0.0 | 0.0 | 0.13 | 5.61 | 5.61 | 99 | 1012.4 |
| 20260510000524 | 19 | 245 | 4.8 | 4.8 | 0.13 | 5.61 | 5.61 | 99 | 1012.4 |
| 20260510000021 | 19 | 228 | 1.6 | 1.6 | 0.18 | 5.59 | 5.59 | 99 | 1011.9 |
| 20260509235518 | 19 | 250 | 1.6 | 1.6 | 0.13 | 5.56 | 5.56 | 99 | 1011.9 |
| 20260509235015 | 19 | 260 | 1.6 | 1.6 | 0.13 | 5.56 | 5.56 | 99 | 1011.8 |
| 20260509234511 | 19 | 255 | 1.6 | 1.6 | 0.18 | 5.54 | 5.54 | 99 | 1011.9 |
| 20260509234009 | 19 | 146 | 3.2 | 4.8 | 0.30 | 5.54 | 5.54 | 99 | 1011.6 |
| 20260509233506 | 19 | 323 | 4.8 | 4.8 | 0.30 | 5.51 | 5.51 | 99 | 1011.6 |
| 20260509233003 | 19 | 259 | 0.0 | 1.6 | 0.18 | 5.49 | 5.49 | 99 | 1011.7 |
| 20260509232500 | 19 | 188 | 1.6 | 1.6 | 0.18 | 5.46 | 5.46 | 99 | 1011.6 |
| 20260509231956 | 19 | 264 | 0.0 | 1.6 | 0.30 | 5.46 | 5.46 | 99 | 1011.8 |
| 20260509231453 | 19 | 242 | 1.6 | 3.2 | 0.30 | 5.44 | 5.44 | 99 | 1011.6 |
| 20260509230951 | 19 | 249 | 1.6 | 1.6 | 0.18 | 5.41 | 5.41 | 99 | 1011.5 |
| 20260509230447 | 19 | 317 | 0.0 | 1.6 | 0.13 | 5.38 | 5.38 | 99 | 1011.6 |
| 20260509225943 | 19 | 278 | 1.6 | 1.6 | 0.18 | 5.36 | 5.36 | 99 | 1012.0 |
| 20260509225440 | 19 | 259 | 1.6 | 1.6 | 0.30 | 5.36 | 5.36 | 99 | 1012.6 |
| 20260509224936 | 19 | 272 | 0.0 | 1.6 | 0.30 | 5.33 | 5.33 | 99 | 1012.7 |
| 20260509224431 | 19 | 226 | 0.0 | 0.0 | 0.18 | 5.31 | 5.31 | 99 | 1012.7 |
| 20260509223929 | 19 | 277 | 0.0 | 0.0 | 0.30 | 5.28 | 5.28 | 99 | 1012.7 |
| 20260509223425 | 19 | 261 | 0.0 | 0.0 | 0.18 | 5.26 | 5.26 | 99 | 1012.8 |
| 20260509222923 | 18 | 242 | 0.0 | 1.6 | 0.30 | 5.26 | 5.26 | 99 | 1012.9 |
| 20260509222418 | 18 | 262 | 1.6 | 1.6 | 0.30 | 5.23 | 5.23 | 99 | 1012.2 |
| 20260509221914 | 19 | 275 | 1.6 | 3.2 | 0.30 | 5.21 | 5.21 | 99 | 1012.1 |
| 20260509221411 | 19 | 277 | 1.6 | 1.6 | 0.30 | 5.18 | 5.18 | 99 | 1012.4 |
| 20260509220907 | 19 | 272 | 0.0 | 0.0 | 0.36 | 5.16 | 5.16 | 99 | 1012.5 |
| 20260509220402 | 18 | 292 | 0.0 | 0.0 | 0.30 | 5.13 | 5.13 | 99 | 1012.7 |
| 20260509215858 | 18 | 231 | 1.6 | 3.2 | 0.30 | 5.11 | 5.11 | 99 | 1012.8 |
| 20260509215355 | 19 | 238 | 1.6 | 1.6 | 0.30 | 5.08 | 5.08 | 99 | 1012.7 |
| 20260509214852 | 19 | 226 | 3.2 | 4.8 | 0.30 | 5.05 | 5.05 | 99 | 1012.3 |
| 20260509214349 | 18 | 227 | 1.6 | 1.6 | 0.30 | 5.03 | 5.03 | 99 | 1012.0 |
| 20260509213846 | 19 | 216 | 0.0 | 1.6 | 0.30 | 5.00 | 5.00 | 99 | 1011.2 |
| 20260509213341 | 19 | 265 | 0.0 | 0.0 | 0.18 | 4.98 | 4.98 | 99 | 1011.7 |
| 20260509212839 | 19 | 258 | 0.0 | 0.0 | 0.13 | 4.95 | 4.95 | 99 | 1011.9 |
| 20260509212337 | 19 | 264 | 0.0 | 0.0 | 0.30 | 4.93 | 4.93 | 99 | 1012.5 |
| 20260509211832 | 19 | 228 | 1.6 | 1.6 | 0.30 | 4.90 | 4.90 | 99 | 1012.5 |
| 20260509211328 | 19 | 37 | 1.6 | 3.2 | 0.18 | 4.88 | 4.88 | 99 | 1012.2 |
| 20260509210825 | 19 | 213 | 1.6 | 1.6 | 0.13 | 4.85 | 4.85 | 99 | 1012.6 |
| 20260509210323 | 19 | 242 | 0.0 | 0.0 | 0.36 | 4.83 | 4.83 | 99 | 1012.9 |
| 20260509205822 | 19 | 249 | 0.0 | 0.0 | 0.30 | 4.80 | 4.80 | 99 | 1013.3 |
| 20260509205317 | 19 | 238 | 1.6 | 1.6 | 0.30 | 4.78 | 4.78 | 99 | 1013.2 |
| 20260509204814 | 19 | 245 | 0.0 | 0.0 | 0.30 | 4.75 | 4.75 | 99 | 1013.1 |
| 20260509204310 | 19 | 269 | 0.0 | 0.0 | 0.30 | 4.72 | 4.72 | 99 | 1012.8 |
| 20260509203806 | 19 | 279 | 0.0 | 0.0 | 0.30 | 4.70 | 4.70 | 99 | 1012.8 |
| 20260509203304 | 18 | 258 | 0.0 | 0.0 | 0.30 | 4.67 | 4.67 | 99 | 1012.7 |
| 20260509202800 | 18 | 257 | 1.6 | 1.6 | 0.30 | 4.65 | 4.65 | 99 | 1012.6 |
| 20260509202256 | 19 | 156 | 1.6 | 1.6 | 0.43 | 4.62 | 4.62 | 99 | 1012.2 |
| 20260509201750 | 19 | 131 | 4.8 | 4.8 | 0.48 | 4.60 | 4.60 | 99 | 1012.4 |
| 20260509201247 | 19 | 248 | 0.0 | 1.6 | 0.36 | 4.55 | 4.55 | 99 | 1012.3 |
| 20260509200743 | 19 | 263 | 0.0 | 1.6 | 0.30 | 4.52 | 4.52 | 99 | 1012.0 |
| 20260509200243 | 19 | 292 | 1.6 | 1.6 | 0.43 | 4.50 | 4.50 | 99 | 1012.2 |
| 20260509195741 | 19 | 142 | 1.6 | 3.2 | 0.48 | 4.47 | 4.47 | 99 | 1012.1 |
| 20260509195236 | 19 | 266 | 1.6 | 1.6 | 0.30 | 4.42 | 4.42 | 99 | 1012.0 |
| 20260509194736 | 19 | 169 | 1.6 | 3.2 | 0.43 | 4.39 | 4.39 | 99 | 1012.1 |
| 20260509194232 | 19 | 286 | 4.8 | 4.8 | 0.48 | 4.37 | 4.37 | 99 | 1012.0 |
| 20260509193729 | 19 | 95 | 1.6 | 1.6 | 0.30 | 4.32 | 4.32 | 99 | 1012.5 |
| 20260509193229 | 19 | 254 | 0.0 | 0.0 | 0.43 | 4.29 | 4.29 | 99 | 1013.3 |
| 20260509192725 | 19 | 184 | 3.2 | 3.2 | 0.30 | 4.24 | 4.24 | 99 | 1013.3 |
| 20260509192220 | 19 | 255 | 0.0 | 1.6 | 0.48 | 4.22 | 4.22 | 99 | 1012.9 |
| 20260509191716 | 19 | 221 | 1.6 | 1.6 | 0.48 | 4.19 | 4.19 | 99 | 1013.1 |
| 20260509191213 | 19 | 244 | 1.6 | 1.6 | 0.48 | 4.14 | 4.14 | 99 | 1012.9 |
| 20260509190709 | 19 | 340 | 1.6 | 1.6 | 0.43 | 4.11 | 4.11 | 99 | 1013.3 |
| 20260509190206 | 19 | 255 | 1.6 | 1.6 | 0.43 | 4.06 | 4.06 | 99 | 1013.6 |
| 20260509185704 | 19 | 254 | 0.0 | 0.0 | 0.30 | 4.01 | 4.01 | 99 | 1013.9 |
| 20260509185159 | 19 | 240 | 3.2 | 4.8 | 0.48 | 3.99 | 3.99 | 99 | 1013.6 |
| 20260509184657 | 19 | 248 | 0.0 | 1.6 | 0.43 | 3.96 | 3.96 | 99 | 1013.6 |
| 20260509184154 | 19 | 145 | 1.6 | 3.2 | 0.30 | 3.91 | 3.91 | 99 | 1013.3 |
| 20260509183650 | 19 | 252 | 0.0 | 1.6 | 0.36 | 3.89 | 3.89 | 99 | 1013.7 |
| 20260509183145 | 19 | 159 | 0.0 | 1.6 | 0.48 | 3.86 | 3.86 | 99 | 1013.5 |
| 20260509182641 | 19 | 188 | 3.2 | 4.8 | 0.30 | 3.81 | 3.81 | 99 | 1013.8 |
| 20260509182139 | 19 | 253 | 0.0 | 1.6 | 0.30 | 3.78 | 3.78 | 99 | 1013.4 |
| 20260509181637 | 19 | 232 | 1.6 | 3.2 | 0.30 | 3.76 | 3.76 | 99 | 1013.4 |
| 20260509181134 | 19 | 279 | 0.0 | 1.6 | 0.30 | 3.71 | 3.71 | 99 | 1013.3 |
| 20260509180631 | 19 | 232 | 1.6 | 3.2 | 0.30 | 3.68 | 3.68 | 99 | 1013.6 |
| 20260509180127 | 19 | 254 | 0.0 | 1.6 | 0.30 | 3.66 | 3.66 | 99 | 1013.3 |
| 20260509175623 | 19 | 282 | 1.6 | 3.2 | 0.30 | 3.63 | 3.63 | 99 | 1012.9 |
| 20260509175120 | 19 | 248 | 1.6 | 1.6 | 0.30 | 3.61 | 3.61 | 99 | 1012.5 |
| 20260509174616 | 19 | 206 | 1.6 | 1.6 | 0.30 | 3.58 | 3.58 | 99 | 1012.9 |
| 20260509174111 | 19 | 209 | 0.0 | 1.6 | 0.36 | 3.56 | 3.56 | 99 | 1012.8 |
| 20260509173607 | 19 | 278 | 1.6 | 1.6 | 0.48 | 3.53 | 3.53 | 99 | 1013.0 |
| 20260509173103 | 19 | 342 | 1.6 | 1.6 | 0.30 | 3.48 | 3.48 | 99 | 1013.0 |
| 20260509172600 | 19 | 226 | 3.2 | 3.2 | 0.30 | 3.45 | 3.45 | 99 | 1013.0 |
| 20260509172056 | 19 | 254 | 1.6 | 1.6 | 0.30 | 3.43 | 3.43 | 99 | 1013.1 |
| 20260509171552 | 19 | 232 | 0.0 | 0.0 | 0.43 | 3.40 | 3.40 | 99 | 1013.1 |
| 20260509171048 | 19 | 198 | 3.2 | 4.8 | 0.30 | 3.35 | 3.35 | 99 | 1013.0 |
| 20260509170544 | 19 | 272 | 0.0 | 1.6 | 0.48 | 3.33 | 3.33 | 99 | 1012.8 |
| 20260509170040 | 19 | 131 | 3.2 | 3.2 | 0.48 | 3.30 | 3.30 | 99 | 1012.8 |
| 20260509165539 | 19 | 274 | 3.2 | 3.2 | 0.48 | 3.25 | 3.25 | 99 | 1013.1 |
| 20260509165035 | 19 | 292 | 1.6 | 3.2 | 0.43 | 3.23 | 3.23 | 99 | 1013.0 |
| 20260509164531 | 19 | 164 | 3.2 | 4.8 | 0.30 | 3.17 | 3.17 | 99 | 1013.5 |
| 20260509164027 | 19 | 293 | 0.0 | 1.6 | 0.48 | 3.15 | 3.15 | 99 | 1013.9 |
| 20260509163525 | 19 | 265 | 1.6 | 1.6 | 0.48 | 3.10 | 3.10 | 99 | 1013.9 |
| 20260509163021 | 19 | 249 | 0.0 | 0.0 | 0.43 | 3.07 | 3.07 | 99 | 1013.8 |
| 20260509162518 | 19 | 244 | 0.0 | 0.0 | 0.43 | 3.02 | 3.02 | 99 | 1013.3 |
| 20260509162014 | 19 | 277 | 1.6 | 3.2 | 0.48 | 3.00 | 3.00 | 99 | 1013.1 |
| 20260509161510 | 19 | 252 | 1.6 | 3.2 | 0.66 | 2.95 | 2.95 | 99 | 1013.3 |
| 20260509161000 | 18 | 215 | 1.6 | 1.6 | 0.43 | 2.90 | 2.90 | 99 | 1013.6 |
| 20260509160456 | 18 | 259 | 3.2 | 8.0 | 0.43 | 2.84 | 2.84 | 99 | 1013.6 |
| 20260509155956 | 18 | 246 | 6.4 | 11.3 | 0.61 | 2.79 | 2.79 | 99 | 1013.7 |
| 20260509155453 | 18 | 301 | 3.2 | 4.8 | 0.61 | 2.74 | 2.74 | 99 | 1013.1 |
| 20260509154949 | 18 | 245 | 1.6 | 1.6 | 0.43 | 2.69 | 2.69 | 99 | 1013.2 |
| 20260509154445 | 18 | 300 | 3.2 | 3.2 | 0.66 | 2.67 | 2.67 | 99 | 1013.4 |
| 20260509153943 | 18 | 180 | 1.6 | 3.2 | 0.79 | 2.62 | 2.62 | 99 | 1013.7 |
| 20260509153439 | 18 | 305 | 0.0 | 1.6 | 0.71 | 2.57 | 2.57 | 99 | 1013.7 |
| 20260509152937 | 18 | 247 | 0.0 | 0.0 | 0.71 | 2.51 | 2.51 | 99 | 1013.6 |
| 20260509152432 | 18 | 216 | 1.6 | 1.6 | 0.61 | 2.44 | 2.44 | 99 | 1013.5 |
| 20260509151929 | 18 | 267 | 0.0 | 1.6 | 0.61 | 2.39 | 2.39 | 99 | 1013.4 |
| 20260509151425 | 18 | 342 | 1.6 | 1.6 | 0.79 | 2.34 | 2.34 | 99 | 1013.5 |
| 20260509150924 | 18 | 266 | 1.6 | 3.2 | 0.79 | 2.29 | 2.29 | 99 | 1012.9 |
| 20260509150421 | 18 | 214 | 1.6 | 1.6 | 0.61 | 2.21 | 2.21 | 99 | 1013.1 |
| 20260509145920 | 18 | 285 | 3.2 | 4.8 | 0.79 | 2.16 | 2.16 | 99 | 1013.1 |
| 20260509145420 | 18 | 54 | 8.0 | 12.9 | 0.79 | 2.08 | 2.08 | 99 | 1013.3 |
| 20260509144915 | 18 | 240 | 1.6 | 3.2 | 0.79 | 2.03 | 2.03 | 99 | 1013.3 |
| 20260509144412 | 18 | 140 | 1.6 | 3.2 | 0.79 | 1.98 | 1.98 | 99 | 1013.4 |
| 20260509143910 | 18 | 249 | 1.6 | 1.6 | 0.71 | 1.91 | 1.91 | 99 | 1013.2 |
| 20260509143407 | 18 | 253 | 0.0 | 0.0 | 0.79 | 1.83 | 1.83 | 99 | 1013.7 |
| 20260509142903 | 18 | 247 | 1.6 | 1.6 | 0.79 | 1.78 | 1.78 | 99 | 1013.5 |
| 20260509142400 | 18 | 247 | 0.0 | 0.0 | 0.89 | 1.70 | 1.70 | 99 | 1013.1 |
| 20260509141855 | 18 | 321 | 1.6 | 3.2 | 0.71 | 1.63 | 1.63 | 99 | 1012.6 |
| 20260509141352 | 18 | 171 | 1.6 | 1.6 | 0.61 | 1.55 | 1.55 | 99 | 1013.3 |
| 20260509140849 | 18 | 236 | 1.6 | 1.6 | 0.79 | 1.50 | 1.50 | 99 | 1013.0 |
| 20260509140346 | 18 | 314 | 0.0 | 0.0 | 0.79 | 1.45 | 1.45 | 99 | 1013.0 |
| 20260509135844 | 18 | 300 | 1.6 | 1.6 | 0.79 | 1.37 | 1.37 | 99 | 1013.3 |
| 20260509135341 | 18 | 230 | 0.0 | 0.0 | 0.79 | 1.32 | 1.32 | 99 | 1013.5 |
| 20260509134838 | 18 | 181 | 1.6 | 1.6 | 0.61 | 1.24 | 1.24 | 99 | 1013.1 |
| 20260509134335 | 18 | 289 | 0.0 | 0.0 | 0.71 | 1.19 | 1.19 | 99 | 1012.9 |
| 20260509133832 | 18 | 260 | 0.0 | 0.0 | 0.79 | 1.12 | 1.12 | 99 | 1013.5 |
| 20260509133329 | 18 | 250 | 0.0 | 1.6 | 0.79 | 1.07 | 1.07 | 99 | 1013.3 |
| 20260509132828 | 18 | 286 | 0.0 | 1.6 | 0.79 | 1.02 | 1.02 | 99 | 1013.1 |
| 20260509132326 | 18 | 283 | 0.0 | 1.6 | 0.79 | 0.94 | 0.94 | 99 | 1013.2 |
| 20260509131822 | 18 | 147 | 1.6 | 3.2 | 0.71 | 0.86 | 0.86 | 99 | 1013.4 |
| 20260509131319 | 18 | 283 | 1.6 | 3.2 | 0.79 | 0.81 | 0.81 | 99 | 1013.1 |
| 20260509130816 | 18 | 259 | 1.6 | 1.6 | 0.66 | 0.74 | 0.74 | 99 | 1013.0 |
| 20260509130311 | 18 | 247 | 3.2 | 3.2 | 0.89 | 0.69 | 0.69 | 99 | 1013.5 |
| 20260509125808 | 18 | 355 | 3.2 | 3.2 | 0.79 | 0.61 | 0.61 | 99 | 1013.2 |
| 20260509125307 | 18 | 41 | 1.6 | 1.6 | 0.71 | 0.53 | 0.53 | 99 | 1013.3 |
| 20260509124801 | 18 | 265 | 0.0 | 1.6 | 0.79 | 0.46 | 0.46 | 99 | 1013.5 |
| 20260509124257 | 18 | 300 | 1.6 | 1.6 | 0.79 | 0.41 | 0.41 | 99 | 1013.3 |
| 20260509123756 | 18 | 326 | 4.8 | 4.8 | 0.61 | 0.33 | 0.33 | 99 | 1013.9 |
| 20260509123253 | 18 | 316 | 3.2 | 3.2 | 0.61 | 0.28 | 0.28 | 99 | 1013.8 |
| 20260509122748 | 18 | 304 | 3.2 | 3.2 | 0.48 | 0.23 | 0.23 | 99 | 1013.5 |
| 20260509122246 | 18 | 179 | 3.2 | 4.8 | 0.18 | 0.18 | 0.18 | 99 | 1013.5 |
| 20260509121742 | 19 | 257 | 4.8 | 8.0 | 0.00 | 0.15 | 0.15 | 99 | 1013.3 |
| 20260509121239 | 20 | 280 | 4.8 | 8.0 | 0.00 | 0.15 | 0.15 | 99 | 1013.1 |
| 20260509120738 | 21 | 236 | 3.2 | 9.7 | 0.00 | 0.15 | 0.15 | 99 | 1012.9 |